Location: Le Gr�zie
(43.6000°N, 13.5000°E)
Time: 21:27:17
(UTC+00:00)

STARLINK-1192 - Pass Details

Date: 09 April 2020
Orbit: 549 x 550 km, 53.0° (Epoch: 26 May)

Event Time Altitude Azimuth Distance (km) Brightness Sun altitude
Rises 19:36:08 0° 306° (NW) 2,733 8.8 -19.7°
Reaches altitude 10° 19:38:25 10° 311° (NW) 1,836 7.5 -20.1°
Maximum altitude 19:42:31 52° 29° (NNE) 691 4.1 -20.7°
Enters shadow 19:43:12 46° 64° (ENE) 747 4.0 -20.8°
